Flag for South Korea Weather past 2 weeks in Daegu, South Korea

Now
50 °F

Clear.


Feels Like: 47 °F
Forecast: 47 / 63 °F
Wind: 7 mph from East

Location: Taegu Ab


UV Index: 5 (Moderate)

Visibility: 10 mi


Pressure: 30.18 "Hg

Humidity: 62%

Dew point: 37 °F

Location of DaeguLocation

Historic Weather in Daegu

°F

Daegu temperature yesterday

Maximum temperature yesterday: 64 °F (at 7:00 AM)
Minimum temperature yesterday: 52 °F (at 1:00 AM)
Average temperature yesterday: 56 °F

Past Weeks' High & Low Weather Summary

 TemperatureHumidityPressure
High81 °F (Apr 15, 4:00 PM)94% (Apr 17, 11:00 PM)30.18 "Hg (Apr 17, 11:00 PM)
Low37 °F (Apr 5, 7:00 AM)12% (Apr 8, 12:00 PM)29.80 "Hg (Apr 5, 3:00 PM)
Average57 °F52%30.02 "Hg
* Reported Apr 4 9:00 PM — Apr 19 9:00 PM, Daegu, Weather by CustomWeather, © 2014

Note: Actual official high and low records may vary slightly from our data, if they occured in-between our weather recording intervals... More about our weather records

Advertising

Historic Weather Conditions — Data for Previous 24 hours

 ConditionsComfort  
Time TempWeatherWind HumidityBarometerVisibility
9:00 PM
Apr 19
50 °FClear.7 mph62%30.18 "Hg10 mi
8:00 PM52 °FClear.6 mph54%30.18 "Hg10 mi
7:00 PM54 °FSunny.12 mph54%30.12 "Hg10 mi
6:00 PM57 °FSunny.14 mph48%30.12 "Hg10 mi
5:00 PM59 °FScattered clouds.16 mph48%30.12 "HgN/A
4:00 PM57 °FPartly sunny.16 mph48%30.12 "HgN/A
3:00 PM59 °FBroken clouds.15 mph42%30.15 "HgN/A
2:00 PM61 °FPartly sunny.10 mph42%30.15 "HgN/A
1:00 PM57 °FPartly sunny.13 mph44%30.18 "HgN/A
12:00 PM59 °FPartly sunny.16 mph48%30.18 "HgN/A
11:00 AM57 °FPartly sunny.8 mph51%30.15 "HgN/A
10:00 AM55 °FPartly sunny.13 mph59%30.15 "HgN/A
9:00 AM55 °FBroken clouds.8 mph63%30.15 "HgN/A
8:00 AM54 °FBroken clouds.9 mph72%30.15 "HgN/A
7:00 AM52 °FPartly sunny.7 mph77%30.15 "HgN/A
6:00 AM52 °FPartly sunny.6 mph72%30.12 "HgN/A
5:00 AM52 °FPassing clouds.7 mph72%30.12 "HgN/A
4:00 AM52 °FPassing clouds.9 mph72%30.12 "HgN/A
3:00 AM50 °FPassing clouds.7 mph76%30.12 "HgN/A
2:00 AM50 °FPassing clouds.8 mph76%30.11 "HgN/A
1:00 AM52 °FPassing clouds.7 mph72%30.11 "HgN/A
12:00 AM50 °FPassing clouds.7 mph76%30.11 "HgN/A
11:00 PM
Apr 18
52 °FPassing clouds.10 mph67%30.10 "HgN/A
10:00 PM54 °FPassing clouds.12 mph58%30.07 "HgN/A
Weather by CustomWeather, © 2014

See weather overview